Wetterstation Bremen Blumenthal 53.19 Nord 008.57 Ost
Wetterdaten: aktuell Freitag, 22.10.2021 06:06
Datum Zeit Temp.A.2m Temp 5cm Temp - 30cm Feuchte A.2m BlattFeu 1 Luftdruck Regen Wind Richtung Richtung Sonnenschein Zeit Regen ET UV Solar Taupunkt Windchill Windben
22.10.2021 06:06 7,2 C 6,1 C 8,3 C 87 % 0 lf 1006,9 hPa 0,0 l/m 6,3 km/h (2 Bft) SW 214 0 min 0 min 0,000 mm 0,0 UV-I 0 W/m 5,2 C 6,2 C 17,7 km/h (3 Bft)
22.10.2021 06:04 7,2 C 6,1 C 8,3 C 88 % 0 lf 1006,9 hPa 0,0 l/m 12,1 km/h (2 Bft) SO 144 0 min 0 min 0,000 mm 0,0 UV-I 0 W/m 5,3 C 4,9 C 27,4 km/h (5 Bft)
22.10.2021 06:02 7,1 C 5,6 C 8,3 C 88 % 0 lf 1006,8 hPa 0,0 l/m 10,3 km/h (2 Bft) S 190 0 min 0 min 0,000 mm 0,0 UV-I 0 W/m 5,2 C 5,1 C 19,3 km/h (3 Bft)
22.10.2021 06:00 7,1 C 5,6 C 8,3 C 88 % 0 lf 1006,9 hPa 0,0 l/m 12,7 km/h (3 Bft) S-SW 211 0 min 0 min 0,025 mm 0,0 UV-I 0 W/m 5,2 C 4,7 C 24,1 km/h (4 Bft)
22.10.2021 05:58 7,1 C 5,6 C 8,3 C 88 % 0 lf 1006,8 hPa 0,0 l/m 11,4 km/h (2 Bft) S-SO 161 0 min 0 min 0,000 mm 0,0 UV-I 0 W/m 5,2 C 4,9 C 19,3 km/h (3 Bft)
22.10.2021 05:56 7,1 C 5,6 C 8,3 C 88 % 0 lf 1006,8 hPa 0,0 l/m 8,4 km/h (2 Bft) S 184 0 min 0 min 0,000 mm 0,0 UV-I 0 W/m 5,2 C 5,5 C 19,3 km/h (3 Bft)
22.10.2021 05:54 7,1 C 5,6 C 8,3 C 88 % 0 lf 1006,9 hPa 0,0 l/m 10,9 km/h (2 Bft) SW 215 0 min 0 min 0,000 mm 0,0 UV-I 0 W/m 5,2 C 5,0 C 19,3 km/h (3 Bft)
22.10.2021 05:52 7,1 C 5,6 C 8,3 C 88 % 0 lf 1006,7 hPa 0,0 l/m 11,8 km/h (2 Bft) SW 226 0 min 0 min 0,000 mm 0,0 UV-I 0 W/m 5,2 C 4,8 C 19,3 km/h (3 Bft)
22.10.2021 05:50 7,0 C 5,6 C 8,3 C 88 % 0 lf 1006,8 hPa 0,0 l/m 9,2 km/h (2 Bft) S-SW 198 0 min 0 min 0,000 mm 0,0 UV-I 0 W/m 5,2 C 5,2 C 17,7 km/h (3 Bft)
22.10.2021 05:48 7,0 C 5,6 C 8,3 C 88 % 0 lf 1006,7 hPa 0,0 l/m 9,7 km/h (2 Bft) S-SO 155 0 min 0 min 0,000 mm 0,0 UV-I 0 W/m 5,2 C 5,1 C 16,1 km/h (3 Bft)
22.10.2021 05:46 6,9 C 5,6 C 8,3 C 89 % 0 lf 1006,8 hPa 0,0 l/m 9,6 km/h (2 Bft) S-SW 208 0 min 0 min 0,000 mm 0,0 UV-I 0 W/m 5,2 C 5,0 C 22,5 km/h (4 Bft)
22.10.2021 05:44 6,9 C 5,6 C 8,3 C 89 % 0 lf 1006,8 hPa 0,0 l/m 11,6 km/h (2 Bft) S-SW 206 0 min 0 min 0,000 mm 0,0 UV-I 0 W/m 5,2 C 4,6 C 27,4 km/h (5 Bft)
22.10.2021 05:42 6,9 C 5,6 C 8,3 C 89 % 0 lf 1006,7 hPa 0,0 l/m 10,0 km/h (2 Bft) W-SW 246 0 min 0 min 0,000 mm 0,0 UV-I 0 W/m 5,2 C 4,9 C 24,1 km/h (4 Bft)
22.10.2021 05:40 6,8 C 5,0 C 8,3 C 89 % 0 lf 1006,7 hPa 0,0 l/m 8,7 km/h (2 Bft) S-SW 210 0 min 0 min 0,000 mm 0,0 UV-I 0 W/m 5,1 C 5,1 C 16,1 km/h (3 Bft)
22.10.2021 05:38 6,8 C 5,0 C 8,3 C 89 % 0 lf 1006,7 hPa 0,0 l/m 11,8 km/h (2 Bft) O-SO 123 0 min 0 min 0,000 mm 0,0 UV-I 0 W/m 5,1 C 4,5 C 24,1 km/h (4 Bft)
22.10.2021 05:36 6,8 C 5,0 C 8,3 C 89 % 0 lf 1006,7 hPa 0,0 l/m 8,6 km/h (2 Bft) S-SO 156 0 min 0 min 0,000 mm 0,0 UV-I 0 W/m 5,1 C 5,1 C 16,1 km/h (3 Bft)
22.10.2021 05:34 6,8 C 5,0 C 8,3 C 89 % 0 lf 1006,7 hPa 0,0 l/m 7,9 km/h (2 Bft) S 175 0 min 0 min 0,000 mm 0,0 UV-I 0 W/m 5,1 C 5,3 C 16,1 km/h (3 Bft)
22.10.2021 05:32 6,8 C 5,0 C 8,3 C 89 % 0 lf 1006,7 hPa 0,0 l/m 10,8 km/h (2 Bft) S-SW 211 0 min 0 min 0,000 mm 0,0 UV-I 0 W/m 5,1 C 4,7 C 19,3 km/h (3 Bft)
22.10.2021 05:30 6,8 C 5,0 C 8,3 C 90 % 0 lf 1006,8 hPa 0,0 l/m 8,5 km/h (2 Bft) S-SW 196 0 min 0 min 0,000 mm 0,0 UV-I 0 W/m 5,3 C 5,1 C 14,5 km/h (3 Bft)
22.10.2021 05:28 6,7 C 5,0 C 8,3 C 90 % 0 lf 1006,8 hPa 0,0 l/m 14,2 km/h (3 Bft) S-SW 203 0 min 0 min 0,000 mm 0,0 UV-I 0 W/m 5,2 C 4,0 C 32,2 km/h (5 Bft)
22.10.2021 05:26 6,8 C 5,0 C 8,3 C 90 % 0 lf 1006,8 hPa 0,0 l/m 7,5 km/h (2 Bft) S 185 0 min 0 min 0,000 mm 0,0 UV-I 0 W/m 5,3 C 5,4 C 14,5 km/h (3 Bft)
22.10.2021 05:24 6,8 C 5,0 C 8,3 C 90 % 0 lf 1006,8 hPa 0,0 l/m 9,6 km/h (2 Bft) S 175 0 min 0 min 0,000 mm 0,0 UV-I 0 W/m 5,3 C 4,9 C 19,3 km/h (3 Bft)
22.10.2021 05:22 6,8 C 5,0 C 8,3 C 90 % 0 lf 1007,0 hPa 0,0 l/m 13,5 km/h (3 Bft) S 176 0 min 0 min 0,000 mm 0,0 UV-I 0 W/m 5,3 C 4,2 C 24,1 km/h (4 Bft)
22.10.2021 05:20 6,8 C 5,0 C 8,3 C 90 % 0 lf 1007,0 hPa 0,0 l/m 8,8 km/h (2 Bft) W-SW 250 0 min 0 min 0,000 mm 0,0 UV-I 0 W/m 5,3 C 5,1 C 16,1 km/h (3 Bft)
22.10.2021 05:18 6,8 C 5,0 C 8,3 C 90 % 0 lf 1007,1 hPa 0,0 l/m 13,1 km/h (3 Bft) W-SW 247 0 min 0 min 0,000 mm 0,0 UV-I 0 W/m 5,3 C 4,3 C 30,6 km/h (5 Bft)
22.10.2021 05:16 6,7 C 5,0 C 8,3 C 90 % 0 lf 1007,0 hPa 0,0 l/m 12,9 km/h (3 Bft) S-SW 204 0 min 0 min 0,000 mm 0,0 UV-I 0 W/m 5,2 C 4,2 C 25,7 km/h (4 Bft)
22.10.2021 05:14 6,7 C 5,0 C 8,3 C 90 % 0 lf 1007,0 hPa 0,0 l/m 12,9 km/h (3 Bft) SW 220 0 min 0 min 0,000 mm 0,0 UV-I 0 W/m 5,2 C 4,2 C 20,9 km/h (4 Bft)
22.10.2021 05:12 6,7 C 5,0 C 8,3 C 90 % 0 lf 1007,0 hPa 0,0 l/m 9,1 km/h (2 Bft) S 178 0 min 0 min 0,000 mm 0,0 UV-I 0 W/m 5,2 C 4,9 C 19,3 km/h (3 Bft)
22.10.2021 05:10 6,7 C 5,0 C 8,3 C 90 % 0 lf 1007,0 hPa 0,0 l/m 10,0 km/h (2 Bft) SW 221 0 min 0 min 0,000 mm 0,0 UV-I 0 W/m 5,2 C 4,7 C 16,1 km/h (3 Bft)
22.10.2021 05:08 6,7 C 5,0 C 8,3 C 90 % 0 lf 1007,0 hPa 0,0 l/m 12,4 km/h (2 Bft) SW 222 0 min 0 min 0,000 mm 0,0 UV-I 0 W/m 5,2 C 4,2 C 25,7 km/h (4 Bft)
22.10.2021 05:06 6,7 C 5,0 C 8,3 C 90 % 0 lf 1007,0 hPa 0,0 l/m 9,5 km/h (2 Bft) S 170 0 min 0 min 0,000 mm 0,0 UV-I 0 W/m 5,2 C 4,8 C 20,9 km/h (4 Bft)
22.10.2021 05:04 6,7 C 5,0 C 8,3 C 90 % 0 lf 1007,1 hPa 0,0 l/m 11,7 km/h (2 Bft) SW 232 0 min 0 min 0,000 mm 0,0 UV-I 0 W/m 5,2 C 4,4 C 20,9 km/h (4 Bft)
22.10.2021 05:02 6,7 C 5,0 C 8,3 C 90 % 0 lf 1007,2 hPa 0,0 l/m 9,1 km/h (2 Bft) S-SW 212 0 min 0 min 0,000 mm 0,0 UV-I 0 W/m 5,2 C 4,9 C 20,9 km/h (4 Bft)
22.10.2021 05:00 6,7 C 5,0 C 8,3 C 90 % 0 lf 1007,1 hPa 0,0 l/m 8,8 km/h (2 Bft) S-SO 161 0 min 0 min 0,000 mm 0,0 UV-I 0 W/m 5,2 C 4,9 C 14,5 km/h (3 Bft)
22.10.2021 04:58 6,7 C 5,0 C 8,3 C 90 % 0 lf 1007,1 hPa 0,0 l/m 10,9 km/h (2 Bft) S-SO 148 0 min 0 min 0,000 mm 0,0 UV-I 0 W/m 5,2 C 4,5 C 22,5 km/h (4 Bft)
22.10.2021 04:56 6,7 C 5,0 C 8,3 C 90 % 0 lf 1007,2 hPa 0,0 l/m 8,5 km/h (2 Bft) S-SW 204 0 min 0 min 0,000 mm 0,0 UV-I 0 W/m 5,2 C 5,0 C 19,3 km/h (3 Bft)
22.10.2021 04:54 6,8 C 5,0 C 8,3 C 90 % 0 lf 1007,3 hPa 0,0 l/m 11,9 km/h (2 Bft) W-SW 250 0 min 0 min 0,000 mm 0,0 UV-I 0 W/m 5,3 C 4,5 C 24,1 km/h (4 Bft)
22.10.2021 04:52 6,7 C 5,0 C 8,3 C 90 % 0 lf 1007,3 hPa 0,0 l/m 11,1 km/h (2 Bft) S 182 0 min 0 min 0,000 mm 0,0 UV-I 0 W/m 5,2 C 4,5 C 20,9 km/h (4 Bft)
22.10.2021 04:50 6,7 C 5,0 C 8,3 C 90 % 0 lf 1007,3 hPa 0,0 l/m 9,5 km/h (2 Bft) S-SW 207 0 min 0 min 0,000 mm 0,0 UV-I 0 W/m 5,2 C 4,8 C 17,7 km/h (3 Bft)
22.10.2021 04:48 6,8 C 5,0 C 8,3 C 90 % 0 lf 1007,3 hPa 0,0 l/m 11,1 km/h (2 Bft) O-SO 109 0 min 0 min 0,000 mm 0,0 UV-I 0 W/m 5,3 C 4,6 C 19,3 km/h (3 Bft)
22.10.2021 04:46 6,8 C 5,0 C 8,3 C 90 % 0 lf 1007,3 hPa 0,0 l/m 9,3 km/h (2 Bft) SW 214 0 min 0 min 0,000 mm 0,0 UV-I 0 W/m 5,3 C 5,0 C 20,9 km/h (4 Bft)
22.10.2021 04:44 6,8 C 5,0 C 8,3 C 90 % 0 lf 1007,4 hPa 0,0 l/m 6,1 km/h (2 Bft) S-SW 201 0 min 0 min 0,000 mm 0,0 UV-I 0 W/m 5,3 C 5,8 C 11,3 km/h (2 Bft)
22.10.2021 04:42 6,8 C 5,0 C 8,3 C 90 % 0 lf 1007,5 hPa 0,0 l/m 8,7 km/h (2 Bft) S-SO 153 0 min 0 min 0,000 mm 0,0 UV-I 0 W/m 5,3 C 5,1 C 12,9 km/h (3 Bft)
22.10.2021 04:40 6,8 C 5,0 C 8,3 C 90 % 0 lf 1007,6 hPa 0,0 l/m 9,4 km/h (2 Bft) S 174 0 min 0 min 0,000 mm 0,0 UV-I 0 W/m 5,3 C 4,9 C 12,9 km/h (3 Bft)
22.10.2021 04:38 6,8 C 5,0 C 8,3 C 90 % 0 lf 1007,5 hPa 0,0 l/m 9,6 km/h (2 Bft) S-SO 163 0 min 0 min 0,000 mm 0,0 UV-I 0 W/m 5,3 C 4,9 C 14,5 km/h (3 Bft)
22.10.2021 04:36 6,8 C 5,0 C 8,3 C 90 % 0 lf 1007,6 hPa 0,0 l/m 8,7 km/h (2 Bft) S-SO 166 0 min 0 min 0,000 mm 0,0 UV-I 0 W/m 5,3 C 5,1 C 19,3 km/h (3 Bft)
22.10.2021 04:34 6,9 C 5,0 C 8,3 C 90 % 0 lf 1007,6 hPa 0,0 l/m 8,4 km/h (2 Bft) S 185 0 min 0 min 0,000 mm 0,0 UV-I 0 W/m 5,4 C 5,3 C 22,5 km/h (4 Bft)
22.10.2021 04:32 6,9 C 5,0 C 8,3 C 90 % 0 lf 1007,6 hPa 0,0 l/m 7,9 km/h (2 Bft) S-SW 210 0 min 0 min 0,000 mm 0,0 UV-I 0 W/m 5,4 C 5,4 C 14,5 km/h (3 Bft)
22.10.2021 04:30 6,9 C 5,0 C 8,3 C 90 % 0 lf 1007,6 hPa 0,0 l/m 8,6 km/h (2 Bft) SW 221 0 min 0 min 0,000 mm 0,0 UV-I 0 W/m 5,4 C 5,2 C 16,1 km/h (3 Bft)
22.10.2021 04:28 6,9 C 5,6 C 8,3 C 90 % 0 lf 1007,8 hPa 0,0 l/m 8,3 km/h (2 Bft) S-SW 192 0 min 0 min 0,000 mm 0,0 UV-I 0 W/m 5,4 C 5,3 C 14,5 km/h (3 Bft)
22.10.2021 04:26 6,9 C 5,6 C 8,3 C 90 % 0 lf 1007,8 hPa 0,0 l/m 9,0 km/h (2 Bft) S-SO 165 0 min 0 min 0,000 mm 0,0 UV-I 0 W/m 5,4 C 5,1 C 16,1 km/h (3 Bft)
22.10.2021 04:24 6,9 C 5,6 C 8,3 C 90 % 0 lf 1007,8 hPa 0,0 l/m 9,9 km/h (2 Bft) SW 234 0 min 0 min 0,000 mm 0,0 UV-I 0 W/m 5,4 C 4,9 C 20,9 km/h (4 Bft)
22.10.2021 04:22 6,9 C 5,6 C 8,3 C 90 % 1 lf 1007,8 hPa 0,0 l/m 7,9 km/h (2 Bft) S-SW 205 0 min 0 min 0,000 mm 0,0 UV-I 0 W/m 5,4 C 5,4 C 16,1 km/h (3 Bft)
22.10.2021 04:20 6,9 C 5,6 C 8,3 C 90 % 3 lf 1007,9 hPa 0,0 l/m 7,9 km/h (2 Bft) W-SW 248 0 min 0 min 0,000 mm 0,0 UV-I 0 W/m 5,4 C 5,4 C 16,1 km/h (3 Bft)
22.10.2021 04:18 6,9 C 5,6 C 8,3 C 90 % 7 lf 1007,7 hPa 0,0 l/m 7,8 km/h (2 Bft) S 175 0 min 0 min 0,000 mm 0,0 UV-I 0 W/m 5,4 C 5,4 C 14,5 km/h (3 Bft)
22.10.2021 04:16 6,9 C 5,6 C 8,3 C 90 % 12 lf 1007,8 hPa 0,0 l/m 11,0 km/h (2 Bft) SW 217 0 min 0 min 0,000 mm 0,0 UV-I 0 W/m 5,4 C 4,7 C 20,9 km/h (4 Bft)
22.10.2021 04:14 6,9 C 5,6 C 8,3 C 90 % 15 lf 1007,8 hPa 0,0 l/m 8,3 km/h (2 Bft) SW 217 0 min 0 min 0,000 mm 0,0 UV-I 0 W/m 5,4 C 5,3 C 16,1 km/h (3 Bft)
22.10.2021 04:12 6,8 C 5,6 C 8,3 C 90 % 15 lf 1007,9 hPa 0,0 l/m 11,1 km/h (2 Bft) W-SW 242 0 min 0 min 0,000 mm 0,0 UV-I 0 W/m 5,3 C 4,6 C 22,5 km/h (4 Bft)
22.10.2021 04:10 6,8 C 5,6 C 8,3 C 90 % 15 lf 1007,9 hPa 0,0 l/m 8,6 km/h (2 Bft) S-SW 200 0 min 0 min 0,000 mm 0,0 UV-I 0 W/m 5,3 C 5,1 C 19,3 km/h (3 Bft)
22.10.2021 04:08 6,8 C 5,0 C 8,3 C 90 % 15 lf 1007,9 hPa 0,0 l/m 8,4 km/h (2 Bft) SW 217 0 min 0 min 0,000 mm 0,0 UV-I 0 W/m 5,3 C 5,2 C 16,1 km/h (3 Bft)
22.10.2021 04:06 6,8 C 5,0 C 8,3 C 90 % 15 lf 1007,9 hPa 0,0 l/m 6,1 km/h (2 Bft) S 188 0 min 0 min 0,000 mm 0,0 UV-I 0 W/m 5,3 C 5,8 C 11,3 km/h (2 Bft)
22.10.2021 04:04 6,8 C 5,0 C 8,3 C 90 % 15 lf 1008,0 hPa 0,0 l/m 4,3 km/h (1 Bft) S-SW 211 0 min 0 min 0,000 mm 0,0 UV-I 0 W/m 5,3 C 6,8 C 9,7 km/h (2 Bft)
22.10.2021 04:02 6,9 C 5,0 C 8,3 C 90 % 15 lf 1007,9 hPa 0,0 l/m 3,2 km/h (1 Bft) SO 141 0 min 0 min 0,000 mm 0,0 UV-I 0 W/m 5,4 C 6,9 C 3,2 km/h (1 Bft)
22.10.2021 04:00 6,9 C 5,0 C 8,3 C 90 % 15 lf 1008,0 hPa 0,0 l/m 7,5 km/h (2 Bft) SO 143 0 min 0 min 0,000 mm 0,0 UV-I 0 W/m 5,4 C 5,5 C 14,5 km/h (3 Bft)
22.10.2021 03:58 6,9 C 5,0 C 8,3 C 90 % 15 lf 1008,0 hPa 0,0 l/m 11,5 km/h (2 Bft) SW 215 0 min 0 min 0,000 mm 0,0 UV-I 0 W/m 5,4 C 4,6 C 19,3 km/h (3 Bft)
22.10.2021 03:56 6,9 C 5,0 C 8,3 C 90 % 15 lf 1008,2 hPa 0,0 l/m 7,1 km/h (2 Bft) W 269 0 min 0 min 0,000 mm 0,0 UV-I 0 W/m 5,4 C 5,6 C 14,5 km/h (3 Bft)
22.10.2021 03:54 6,9 C 5,0 C 8,3 C 90 % 15 lf 1008,2 hPa 0,0 l/m 8,4 km/h (2 Bft) W-SW 240 0 min 0 min 0,000 mm 0,0 UV-I 0 W/m 5,4 C 5,3 C 14,5 km/h (3 Bft)
22.10.2021 03:52 6,9 C 5,0 C 8,3 C 90 % 15 lf 1008,1 hPa 0,0 l/m 9,7 km/h (2 Bft) S-SO 149 0 min 0 min 0,000 mm 0,0 UV-I 0 W/m 5,4 C 5,0 C 16,1 km/h (3 Bft)
22.10.2021 03:50 6,9 C 5,0 C 8,3 C 90 % 15 lf 1008,2 hPa 0,0 l/m 7,4 km/h (2 Bft) W 277 0 min 0 min 0,000 mm 0,0 UV-I 0 W/m 5,4 C 5,5 C 12,9 km/h (3 Bft)
22.10.2021 03:48 6,9 C 5,0 C 8,3 C 90 % 15 lf 1008,2 hPa 0,0 l/m 6,8 km/h (2 Bft) W-SW 241 0 min 0 min 0,000 mm 0,0 UV-I 0 W/m 5,4 C 5,7 C 12,9 km/h (3 Bft)
22.10.2021 03:46 7,0 C 5,6 C 8,3 C 90 % 15 lf 1008,2 hPa 0,0 l/m 6,3 km/h (2 Bft) SW 215 0 min 0 min 0,000 mm 0,0 UV-I 0 W/m 5,5 C 5,9 C 12,9 km/h (3 Bft)
22.10.2021 03:44 6,9 C 5,6 C 8,3 C 90 % 15 lf 1008,1 hPa 0,0 l/m 8,6 km/h (2 Bft) W 275 0 min 0 min 0,000 mm 0,0 UV-I 0 W/m 5,4 C 5,2 C 17,7 km/h (3 Bft)
22.10.2021 03:42 7,0 C 5,6 C 8,3 C 90 % 15 lf 1008,2 hPa 0,0 l/m 7,6 km/h (2 Bft) S-SW 204 0 min 0 min 0,000 mm 0,0 UV-I 0 W/m 5,5 C 5,6 C 11,3 km/h (2 Bft)
22.10.2021 03:40 7,0 C 5,6 C 8,3 C 90 % 15 lf 1008,3 hPa 0,0 l/m 9,7 km/h (2 Bft) S-SW 201 0 min 0 min 0,000 mm 0,0 UV-I 0 W/m 5,5 C 5,1 C 19,3 km/h (3 Bft)
22.10.2021 03:38 6,9 C 5,6 C 8,3 C 90 % 15 lf 1008,3 hPa 0,0 l/m 9,9 km/h (2 Bft) S-SW 212 0 min 0 min 0,000 mm 0,0 UV-I 0 W/m 5,4 C 4,9 C 24,1 km/h (4 Bft)
22.10.2021 03:36 6,9 C 5,6 C 8,3 C 90 % 15 lf 1008,4 hPa 0,0 l/m 8,7 km/h (2 Bft) S-SW 198 0 min 0 min 0,000 mm 0,0 UV-I 0 W/m 5,4 C 5,2 C 12,9 km/h (3 Bft)
22.10.2021 03:34 6,9 C 5,6 C 8,3 C 90 % 15 lf 1008,4 hPa 0,0 l/m 6,3 km/h (2 Bft) S 169 0 min 0 min 0,000 mm 0,0 UV-I 0 W/m 5,4 C 5,8 C 11,3 km/h (2 Bft)
22.10.2021 03:32 6,9 C 5,6 C 8,3 C 90 % 15 lf 1008,4 hPa 0,0 l/m 9,5 km/h (2 Bft) S-SW 211 0 min 0 min 0,000 mm 0,0 UV-I 0 W/m 5,4 C 5,0 C 20,9 km/h (4 Bft)
22.10.2021 03:30 6,9 C 5,6 C 8,3 C 90 % 15 lf 1008,3 hPa 0,0 l/m 9,4 km/h (2 Bft) W-SW 248 0 min 0 min 0,000 mm 0,0 UV-I 0 W/m 5,4 C 5,1 C 19,3 km/h (3 Bft)
22.10.2021 03:28 6,9 C 5,6 C 8,3 C 90 % 15 lf 1008,3 hPa 0,0 l/m 7,2 km/h (2 Bft) SW 230 0 min 0 min 0,000 mm 0,0 UV-I 0 W/m 5,4 C 5,6 C 12,9 km/h (3 Bft)
22.10.2021 03:26 6,8 C 5,6 C 8,3 C 90 % 15 lf 1008,3 hPa 0,0 l/m 6,2 km/h (2 Bft) W-SW 255 0 min 0 min 0,000 mm 0,0 UV-I 0 W/m 5,3 C 5,7 C 16,1 km/h (3 Bft)
22.10.2021 03:24 6,8 C 5,6 C 8,3 C 90 % 15 lf 1008,2 hPa 0,0 l/m 3,1 km/h (1 Bft) S 186 0 min 0 min 0,000 mm 0,0 UV-I 0 W/m 5,3 C 6,8 C 12,9 km/h (3 Bft)
22.10.2021 03:22 6,8 C 5,6 C 8,3 C 90 % 15 lf 1008,2 hPa 0,0 l/m 7,1 km/h (2 Bft) S-SW 198 0 min 0 min 0,000 mm 0,0 UV-I 0 W/m 5,3 C 5,5 C 14,5 km/h (3 Bft)
22.10.2021 03:20 6,8 C 5,6 C 8,3 C 90 % 15 lf 1008,2 hPa 0,0 l/m 7,6 km/h (2 Bft) S 187 0 min 0 min 0,000 mm 0,0 UV-I 0 W/m 5,3 C 5,3 C 11,3 km/h (2 Bft)
22.10.2021 03:18 6,8 C 5,0 C 8,3 C 90 % 15 lf 1008,3 hPa 0,0 l/m 6,7 km/h (2 Bft) S-SW 194 0 min 0 min 0,000 mm 0,0 UV-I 0 W/m 5,3 C 5,6 C 11,3 km/h (2 Bft)
22.10.2021 03:16 6,8 C 5,0 C 8,3 C 90 % 15 lf 1008,3 hPa 0,0 l/m 5,2 km/h (1 Bft) S-SW 193 0 min 0 min 0,000 mm 0,0 UV-I 0 W/m 5,3 C 6,1 C 9,7 km/h (2 Bft)
22.10.2021 03:14 6,8 C 5,0 C 8,3 C 91 % 15 lf 1008,3 hPa 0,0 l/m 5,5 km/h (2 Bft) S-SW 207 0 min 0 min 0,000 mm 0,0 UV-I 0 W/m 5,4 C 6,0 C 11,3 km/h (2 Bft)
22.10.2021 03:12 6,8 C 5,6 C 8,3 C 91 % 15 lf 1008,3 hPa 0,0 l/m 4,1 km/h (1 Bft) S-SW 203 0 min 0 min 0,000 mm 0,0 UV-I 0 W/m 5,4 C 6,8 C 17,7 km/h (3 Bft)
22.10.2021 03:10 6,8 C 5,6 C 8,3 C 91 % 15 lf 1008,2 hPa 0,0 l/m 5,1 km/h (1 Bft) S-SW 213 0 min 0 min 0,000 mm 0,0 UV-I 0 W/m 5,4 C 6,1 C 11,3 km/h (2 Bft)
22.10.2021 03:08 6,8 C 5,6 C 8,3 C 91 % 15 lf 1008,3 hPa 0,0 l/m 8,7 km/h (2 Bft) S-SW 207 0 min 0 min 0,000 mm 0,0 UV-I 0 W/m 5,4 C 5,1 C 12,9 km/h (3 Bft)
22.10.2021 03:06 6,8 C 5,6 C 8,3 C 91 % 15 lf 1008,4 hPa 0,0 l/m 6,2 km/h (2 Bft) SW 225 0 min 0 min 0,000 mm 0,0 UV-I 0 W/m 5,4 C 5,7 C 14,5 km/h (3 Bft)
22.10.2021 03:04 6,8 C 5,6 C 8,3 C 91 % 15 lf 1008,4 hPa 0,0 l/m 5,7 km/h (2 Bft) SW 229 0 min 0 min 0,000 mm 0,0 UV-I 0 W/m 5,4 C 5,9 C 12,9 km/h (3 Bft)
22.10.2021 03:02 6,7 C 5,6 C 8,3 C 91 % 15 lf 1008,4 hPa 0,0 l/m 7,2 km/h (2 Bft) SW 227 0 min 0 min 0,000 mm 0,0 UV-I 0 W/m 5,3 C 5,3 C 11,3 km/h (2 Bft)
22.10.2021 03:00 6,7 C 5,6 C 8,3 C 91 % 15 lf 1008,4 hPa 0,0 l/m 7,0 km/h (2 Bft) S-SW 207 0 min 0 min 0,000 mm 0,0 UV-I 0 W/m 5,3 C 5,4 C 12,9 km/h (3 Bft)
22.10.2021 02:58 6,7 C 5,6 C 8,3 C 91 % 15 lf 1008,5 hPa 0,0 l/m 7,2 km/h (2 Bft) S-SW 195 0 min 0 min 0,000 mm 0,0 UV-I 0 W/m 5,3 C 5,3 C 12,9 km/h (3 Bft)
22.10.2021 02:56 6,7 C 5,6 C 8,3 C 91 % 15 lf 1008,5 hPa 0,0 l/m 8,1 km/h (2 Bft) SW 235 0 min 0 min 0,000 mm 0,0 UV-I 0 W/m 5,3 C 5,1 C 12,9 km/h (3 Bft)
22.10.2021 02:54 6,7 C 5,0 C 8,3 C 91 % 15 lf 1008,5 hPa 0,0 l/m 4,1 km/h (1 Bft) S-SO 155 0 min 0 min 0,000 mm 0,0 UV-I 0 W/m 5,3 C 6,7 C 8,0 km/h (2 Bft)
22.10.2021 02:52 6,7 C 5,0 C 8,3 C 91 % 15 lf 1008,5 hPa 0,0 l/m 8,3 km/h (2 Bft) S-SW 201 0 min 0 min 0,000 mm 0,0 UV-I 0 W/m 5,3 C 5,1 C 14,5 km/h (3 Bft)
22.10.2021 02:50 6,7 C 5,0 C 8,3 C 91 % 15 lf 1008,5 hPa 0,0 l/m 9,0 km/h (2 Bft) S-SW 201 0 min 0 min 0,000 mm 0,0 UV-I 0 W/m 5,3 C 4,9 C 17,7 km/h (3 Bft)
22.10.2021 02:48 6,7 C 5,0 C 8,3 C 91 % 15 lf 1008,5 hPa 0,0 l/m 8,6 km/h (2 Bft) S-SW 203 0 min 0 min 0,000 mm 0,0 UV-I 0 W/m 5,3 C 5,0 C 16,1 km/h (3 Bft)
22.10.2021 02:46 6,7 C 5,0 C 8,3 C 91 % 15 lf 1008,5 hPa 0,0 l/m 8,9 km/h (2 Bft) S 175 0 min 0 min 0,000 mm 0,0 UV-I 0 W/m 5,3 C 4,9 C 14,5 km/h (3 Bft)
22.10.2021 02:44 6,7 C 5,0 C 8,3 C 91 % 15 lf 1008,5 hPa 0,0 l/m 8,0 km/h (2 Bft) S 180 0 min 0 min 0,000 mm 0,0 UV-I 0 W/m 5,3 C 5,1 C 14,5 km/h (3 Bft)
22.10.2021 02:42 6,7 C 5,6 C 8,3 C 91 % 15 lf 1008,4 hPa 0,0 l/m 2,1 km/h (1 Bft) SW 223 0 min 0 min 0,000 mm 0,0 UV-I 0 W/m 5,3 C 6,7 C 6,4 km/h (2 Bft)
22.10.2021 02:40 6,7 C 5,6 C 8,3 C 91 % 15 lf 1008,5 hPa 0,2 l/m 8,0 km/h (2 Bft) NW 319 0 min 2 min 0,000 mm 0,0 UV-I 0 W/m 5,3 C 5,1 C 14,5 km/h (3 Bft)
22.10.2021 02:38 6,7 C 5,6 C 8,3 C 91 % 15 lf 1008,5 hPa 0,0 l/m 5,4 km/h (2 Bft) S 189 0 min 0 min 0,000 mm 0,0 UV-I 0 W/m 5,3 C 5,9 C 12,9 km/h (3 Bft)
22.10.2021 02:36 6,6 C 5,6 C 8,3 C 91 % 15 lf 1008,5 hPa 0,0 l/m 5,1 km/h (1 Bft) SW 236 0 min 0 min 0,000 mm 0,0 UV-I 0 W/m 5,2 C 5,9 C 11,3 km/h (2 Bft)
22.10.2021 02:34 6,6 C 5,6 C 8,3 C 90 % 15 lf 1008,5 hPa 0,0 l/m 1,8 km/h (1 Bft) SW 219 0 min 0 min 0,000 mm 0,0 UV-I 0 W/m 5,1 C 6,6 C 9,7 km/h (2 Bft)
22.10.2021 02:32 6,6 C 5,0 C 8,3 C 90 % 15 lf 1008,5 hPa 0,0 l/m 6,3 km/h (2 Bft) W 275 0 min 0 min 0,000 mm 0,0 UV-I 0 W/m 5,1 C 5,5 C 12,9 km/h (3 Bft)
22.10.2021 02:30 6,6 C 5,0 C 8,3 C 90 % 15 lf 1008,5 hPa 0,0 l/m 7,0 km/h (2 Bft) W-SW 242 0 min 0 min 0,000 mm 0,0 UV-I 0 W/m 5,1 C 5,3 C 16,1 km/h (3 Bft)
22.10.2021 02:28 6,6 C 5,0 C 8,3 C 90 % 15 lf 1008,5 hPa 0,0 l/m 7,1 km/h (2 Bft) SO 132 0 min 0 min 0,000 mm 0,0 UV-I 0 W/m 5,1 C 5,2 C 16,1 km/h (3 Bft)
22.10.2021 02:26 6,6 C 5,0 C 8,3 C 90 % 15 lf 1008,6 hPa 0,0 l/m 7,5 km/h (2 Bft) SW 219 0 min 0 min 0,000 mm 0,0 UV-I 0 W/m 5,1 C 5,1 C 14,5 km/h (3 Bft)
22.10.2021 02:24 6,6 C 5,0 C 8,3 C 90 % 15 lf 1008,6 hPa 0,0 l/m 5,6 km/h (2 Bft) W 260 0 min 0 min 0,000 mm 0,0 UV-I 0 W/m 5,1 C 5,7 C 11,3 km/h (2 Bft)
22.10.2021 02:22 6,6 C 4,4 C 8,3 C 90 % 15 lf 1008,5 hPa 0,0 l/m 4,2 km/h (1 Bft) W-SW 257 0 min 0 min 0,000 mm 0,0 UV-I 0 W/m 5,1 C 6,6 C 11,3 km/h (2 Bft)
22.10.2021 02:20 6,6 C 4,4 C 8,3 C 90 % 15 lf 1008,6 hPa 0,0 l/m 5,1 km/h (1 Bft) SW 214 0 min 0 min 0,000 mm 0,0 UV-I 0 W/m 5,1 C 5,9 C 9,7 km/h (2 Bft)
22.10.2021 02:18 6,6 C 4,4 C 8,3 C 90 % 15 lf 1008,5 hPa 0,0 l/m 3,2 km/h (1 Bft) W-SW 248 0 min 0 min 0,000 mm 0,0 UV-I 0 W/m 5,1 C 6,6 C 9,7 km/h (2 Bft)
22.10.2021 02:16 6,6 C 5,0 C 8,3 C 90 % 15 lf 1008,5 hPa 0,0 l/m 5,7 km/h (2 Bft) W-SW 248 0 min 0 min 0,000 mm 0,0 UV-I 0 W/m 5,1 C 5,7 C 11,3 km/h (2 Bft)
22.10.2021 02:14 6,6 C 5,0 C 8,3 C 90 % 15 lf 1008,5 hPa 0,0 l/m 6,6 km/h (2 Bft) S-SW 209 0 min 0 min 0,000 mm 0,0 UV-I 0 W/m 5,1 C 5,4 C 12,9 km/h (3 Bft)
22.10.2021 02:12 6,6 C 5,0 C 8,3 C 90 % 15 lf 1008,4 hPa 0,0 l/m 8,4 km/h (2 Bft) W-SW 244 0 min 0 min 0,000 mm 0,0 UV-I 0 W/m 5,1 C 4,9 C 12,9 km/h (3 Bft)
22.10.2021 02:10 6,6 C 5,0 C 8,3 C 90 % 15 lf 1008,5 hPa 0,0 l/m 7,2 km/h (2 Bft) S-SW 200 0 min 0 min 0,000 mm 0,0 UV-I 0 W/m 5,1 C 5,2 C 12,9 km/h (3 Bft)
22.10.2021 02:08 6,6 C 4,4 C 8,3 C 90 % 15 lf 1008,3 hPa 0,0 l/m 7,4 km/h (2 Bft) SW 215 0 min 0 min 0,000 mm 0,0 UV-I 0 W/m 5,1 C 5,2 C 14,5 km/h (3 Bft)
22.10.2021 02:06 6,6 C 5,0 C 8,3 C 90 % 15 lf 1008,4 hPa 0,0 l/m 1,7 km/h (1 Bft) W-SW 240 0 min 0 min 0,000 mm 0,0 UV-I 0 W/m 5,1 C 6,6 C 9,7 km/h (2 Bft)
22.10.2021 02:04 6,6 C 5,0 C 8,3 C 90 % 15 lf 1008,4 hPa 0,0 l/m 5,6 km/h (2 Bft) SW 215 0 min 0 min 0,000 mm 0,0 UV-I 0 W/m 5,1 C 5,7 C 12,9 km/h (3 Bft)
22.10.2021 02:02 6,7 C 5,0 C 8,3 C 91 % 15 lf 1008,4 hPa 0,0 l/m 5,9 km/h (2 Bft) SW 217 0 min 0 min 0,000 mm 0,0 UV-I 0 W/m 5,3 C 5,7 C 14,5 km/h (3 Bft)
22.10.2021 02:00 6,6 C 5,0 C 8,3 C 91 % 15 lf 1008,3 hPa 0,0 l/m 6,0 km/h (2 Bft) S-SW 211 0 min 0 min 0,000 mm 0,0 UV-I 0 W/m 5,2 C 5,6 C 14,5 km/h (3 Bft)
22.10.2021 01:58 6,6 C 5,0 C 8,3 C 91 % 15 lf 1008,4 hPa 0,0 l/m 5,6 km/h (2 Bft) W 279 0 min 0 min 0,000 mm 0,0 UV-I 0 W/m 5,2 C 5,7 C 12,9 km/h (3 Bft)
22.10.2021 01:56 6,6 C 5,0 C 8,3 C 91 % 15 lf 1008,4 hPa 0,0 l/m 7,1 km/h (2 Bft) S 179 0 min 0 min 0,000 mm 0,0 UV-I 0 W/m 5,2 C 5,2 C 14,5 km/h (3 Bft)
22.10.2021 01:54 6,6 C 5,0 C 8,3 C 91 % 15 lf 1008,5 hPa 0,0 l/m 10,0 km/h (2 Bft) W-NW 286 0 min 0 min 0,000 mm 0,0 UV-I 0 W/m 5,2 C 4,6 C 19,3 km/h (3 Bft)
22.10.2021 01:52 6,6 C 5,0 C 8,3 C 91 % 15 lf 1008,5 hPa 0,0 l/m 9,2 km/h (2 Bft) W-SW 238 0 min 0 min 0,000 mm 0,0 UV-I 0 W/m 5,2 C 4,7 C 16,1 km/h (3 Bft)
22.10.2021 01:50 6,5 C 5,0 C 8,3 C 91 % 15 lf 1008,6 hPa 0,0 l/m 7,0 km/h (2 Bft) SW 231 0 min 0 min 0,000 mm 0,0 UV-I 0 W/m 5,1 C 5,2 C 16,1 km/h (3 Bft)
22.10.2021 01:48 6,5 C 5,0 C 8,3 C 91 % 15 lf 1008,4 hPa 0,0 l/m 8,1 km/h (2 Bft) W-SW 257 0 min 0 min 0,000 mm 0,0 UV-I 0 W/m 5,1 C 4,9 C 17,7 km/h (3 Bft)
22.10.2021 01:46 6,5 C 5,0 C 8,3 C 91 % 15 lf 1008,3 hPa 0,0 l/m 5,8 km/h (2 Bft) SW 223 0 min 0 min 0,000 mm 0,0 UV-I 0 W/m 5,1 C 5,5 C 17,7 km/h (3 Bft)
22.10.2021 01:44 6,5 C 5,0 C 8,3 C 91 % 15 lf 1008,3 hPa 0,0 l/m 5,6 km/h (2 Bft) SW 216 0 min 0 min 0,000 mm 0,0 UV-I 0 W/m 5,1 C 5,6 C 9,7 km/h (2 Bft)
22.10.2021 01:42 6,5 C 5,0 C 8,3 C 91 % 15 lf 1008,4 hPa 0,0 l/m 4,4 km/h (1 Bft) S-SO 168 0 min 0 min 0,000 mm 0,0 UV-I 0 W/m 5,1 C 6,5 C 8,0 km/h (2 Bft)
22.10.2021 01:40 6,5 C 5,0 C 8,3 C 91 % 15 lf 1008,3 hPa 0,0 l/m 4,5 km/h (1 Bft) S-SW 201 0 min 0 min 0,000 mm 0,0 UV-I 0 W/m 5,1 C 6,5 C 11,3 km/h (2 Bft)
22.10.2021 01:38 6,6 C 5,0 C 8,9 C 91 % 15 lf 1008,4 hPa 0,0 l/m 4,8 km/h (1 Bft) S-SW 200 0 min 0 min 0,000 mm 0,0 UV-I 0 W/m 5,2 C 6,0 C 9,7 km/h (2 Bft)
22.10.2021 01:36 6,6 C 5,0 C 8,9 C 91 % 15 lf 1008,3 hPa 0,0 l/m 10,6 km/h (2 Bft) W-SW 252 0 min 0 min 0,000 mm 0,0 UV-I 0 W/m 5,2 C 4,5 C 19,3 km/h (3 Bft)
22.10.2021 01:34 6,6 C 5,0 C 8,9 C 91 % 15 lf 1008,3 hPa 0,0 l/m 5,7 km/h (2 Bft) S-SW 203 0 min 0 min 0,000 mm 0,0 UV-I 0 W/m 5,2 C 5,7 C 14,5 km/h (3 Bft)
22.10.2021 01:32 6,6 C 5,0 C 8,9 C 91 % 15 lf 1008,3 hPa 0,0 l/m 9,6 km/h (2 Bft) S-SW 200 0 min 0 min 0,000 mm 0,0 UV-I 0 W/m 5,2 C 4,7 C 14,5 km/h (3 Bft)
22.10.2021 01:30 6,6 C 5,0 C 8,9 C 91 % 15 lf 1008,3 hPa 0,0 l/m 6,5 km/h (2 Bft) S-SW 210 0 min 0 min 0,000 mm 0,0 UV-I 0 W/m 5,2 C 5,4 C 11,3 km/h (2 Bft)
22.10.2021 01:28 6,6 C 5,0 C 8,9 C 91 % 15 lf 1008,3 hPa 0,0 l/m 9,4 km/h (2 Bft) S-SW 206 0 min 0 min 0,000 mm 0,0 UV-I 0 W/m 5,2 C 4,7 C 17,7 km/h (3 Bft)
22.10.2021 01:26 6,6 C 5,0 C 8,9 C 91 % 15 lf 1008,2 hPa 0,0 l/m 9,3 km/h (2 Bft) S 184 0 min 0 min 0,000 mm 0,0 UV-I 0 W/m 5,2 C 4,7 C 19,3 km/h (3 Bft)
22.10.2021 01:24 6,6 C 5,0 C 8,9 C 91 % 15 lf 1008,2 hPa 0,0 l/m 6,0 km/h (2 Bft) W-SW 254 0 min 0 min 0,000 mm 0,0 UV-I 0 W/m 5,2 C 5,6 C 11,3 km/h (2 Bft)
22.10.2021 01:22 6,5 C 5,0 C 8,9 C 91 % 15 lf 1008,3 hPa 0,0 l/m 6,7 km/h (2 Bft) S-SW 202 0 min 0 min 0,000 mm 0,0 UV-I 0 W/m 5,1 C 5,2 C 12,9 km/h (3 Bft)
22.10.2021 01:20 6,4 C 5,0 C 8,9 C 91 % 15 lf 1008,2 hPa 0,0 l/m 6,3 km/h (2 Bft) S-SW 200 0 min 0 min 0,000 mm 0,0 UV-I 0 W/m 5,0 C 5,2 C 14,5 km/h (3 Bft)
22.10.2021 01:18 6,4 C 5,0 C 8,9 C 91 % 15 lf 1008,2 hPa 0,0 l/m 7,0 km/h (2 Bft) W-SW 247 0 min 0 min 0,000 mm 0,0 UV-I 0 W/m 5,0 C 5,0 C 16,1 km/h (3 Bft)
22.10.2021 01:16 6,4 C 5,0 C 8,9 C 91 % 15 lf 1008,2 hPa 0,0 l/m 7,9 km/h (2 Bft) S-SW 195 0 min 0 min 0,000 mm 0,0 UV-I 0 W/m 5,0 C 4,8 C 14,5 km/h (3 Bft)
22.10.2021 01:14 6,4 C 5,0 C 8,9 C 91 % 15 lf 1008,1 hPa 0,0 l/m 4,1 km/h (1 Bft) W-SW 242 0 min 0 min 0,000 mm 0,0 UV-I 0 W/m 5,0 C 6,4 C 8,0 km/h (2 Bft)
22.10.2021 01:12 6,4 C 5,0 C 8,9 C 91 % 15 lf 1008,1 hPa 0,0 l/m 6,9 km/h (2 Bft) W-SW 257 0 min 0 min 0,000 mm 0,0 UV-I 0 W/m 5,0 C 5,1 C 20,9 km/h (4 Bft)
22.10.2021 01:10 6,3 C 5,0 C 8,9 C 91 % 15 lf 1008,0 hPa 0,0 l/m 8,3 km/h (2 Bft) S-SW 196 0 min 0 min 0,000 mm 0,0 UV-I 0 W/m 4,9 C 4,6 C 12,9 km/h (3 Bft)
22.10.2021 01:08 6,3 C 4,4 C 8,9 C 91 % 15 lf 1008,0 hPa 0,0 l/m 10,0 km/h (2 Bft) S-SW 200 0 min 0 min 0,000 mm 0,0 UV-I 0 W/m 4,9 C 4,2 C 19,3 km/h (3 Bft)
22.10.2021 01:06 6,3 C 4,4 C 8,9 C 91 % 15 lf 1007,9 hPa 0,0 l/m 7,9 km/h (2 Bft) W-SW 253 0 min 0 min 0,000 mm 0,0 UV-I 0 W/m 4,9 C 4,7 C 14,5 km/h (3 Bft)
22.10.2021 01:04 6,3 C 5,0 C 8,9 C 91 % 15 lf 1007,9 hPa 0,0 l/m 5,2 km/h (1 Bft) SW 214 0 min 0 min 0,000 mm 0,0 UV-I 0 W/m 4,9 C 5,5 C 8,0 km/h (2 Bft)
22.10.2021 01:02 6,3 C 5,0 C 8,9 C 91 % 15 lf 1007,9 hPa 0,0 l/m 5,3 km/h (1 Bft) S 178 0 min 0 min 0,000 mm 0,0 UV-I 0 W/m 4,9 C 5,5 C 11,3 km/h (2 Bft)
22.10.2021 01:00 6,3 C 4,4 C 8,9 C 91 % 15 lf 1007,9 hPa 0,0 l/m 9,5 km/h (2 Bft) SW 219 0 min 0 min 0,000 mm 0,0 UV-I 0 W/m 4,9 C 4,3 C 20,9 km/h (4 Bft)
22.10.2021 00:58 6,3 C 4,4 C 8,9 C 91 % 15 lf 1007,9 hPa 0,0 l/m 6,0 km/h (2 Bft) SW 227 0 min 0 min 0,000 mm 0,0 UV-I 0 W/m 4,9 C 5,2 C 12,9 km/h (3 Bft)
22.10.2021 00:56 6,2 C 4,4 C 8,9 C 91 % 15 lf 1007,9 hPa 0,0 l/m 6,7 km/h (2 Bft) S 178 0 min 0 min 0,000 mm 0,0 UV-I 0 W/m 4,8 C 4,9 C 14,5 km/h (3 Bft)
22.10.2021 00:54 6,2 C 4,4 C 8,9 C 91 % 15 lf 1007,9 hPa 0,0 l/m 7,3 km/h (2 Bft) SW 217 0 min 0 min 0,000 mm 0,0 UV-I 0 W/m 4,8 C 4,7 C 16,1 km/h (3 Bft)
22.10.2021 00:52 6,2 C 4,4 C 8,9 C 91 % 15 lf 1007,9 hPa 0,0 l/m 4,5 km/h (1 Bft) W 268 0 min 0 min 0,000 mm 0,0 UV-I 0 W/m 4,8 C 6,2 C 9,7 km/h (2 Bft)
22.10.2021 00:50 6,2 C 4,4 C 8,9 C 91 % 15 lf 1007,9 hPa 0,0 l/m 6,0 km/h (2 Bft) S-SW 203 0 min 0 min 0,000 mm 0,0 UV-I 0 W/m 4,8 C 5,1 C 17,7 km/h (3 Bft)
22.10.2021 00:48 6,2 C 4,4 C 8,9 C 91 % 15 lf 1007,8 hPa 0,0 l/m 5,4 km/h (2 Bft) W 270 0 min 0 min 0,000 mm 0,0 UV-I 0 W/m 4,8 C 5,3 C 11,3 km/h (2 Bft)
22.10.2021 00:46 6,2 C 4,4 C 8,9 C 91 % 15 lf 1007,8 hPa 0,0 l/m 1,6 km/h (1 Bft) S-SO 159 0 min 0 min 0,000 mm 0,0 UV-I 0 W/m 4,8 C 6,2 C 6,4 km/h (2 Bft)
22.10.2021 00:44 6,2 C 4,4 C 8,9 C 91 % 15 lf 1007,8 hPa 0,0 l/m 4,5 km/h (1 Bft) W-SW 250 0 min 0 min 0,000 mm 0,0 UV-I 0 W/m 4,8 C 6,2 C 11,3 km/h (2 Bft)
22.10.2021 00:42 6,2 C 4,4 C 8,9 C 91 % 15 lf 1007,8 hPa 0,0 l/m 5,8 km/h (2 Bft) S-SW 207 0 min 0 min 0,000 mm 0,0 UV-I 0 W/m 4,8 C 5,2 C 11,3 km/h (2 Bft)
22.10.2021 00:40 6,2 C 4,4 C 8,9 C 91 % 15 lf 1007,8 hPa 0,0 l/m 5,7 km/h (2 Bft) S 178 0 min 0 min 0,000 mm 0,0 UV-I 0 W/m 4,8 C 5,2 C 14,5 km/h (3 Bft)
22.10.2021 00:38 6,2 C 4,4 C 8,9 C 91 % 15 lf 1007,8 hPa 0,0 l/m 4,8 km/h (1 Bft) SW 224 0 min 0 min 0,000 mm 0,0 UV-I 0 W/m 4,8 C 5,5 C 9,7 km/h (2 Bft)
22.10.2021 00:36 6,2 C 4,4 C 8,9 C 92 % 15 lf 1007,9 hPa 0,0 l/m 4,4 km/h (1 Bft) S-SW 192 0 min 0 min 0,000 mm 0,0 UV-I 0 W/m 5,0 C 6,2 C 9,7 km/h (2 Bft)
22.10.2021 00:34 6,2 C 4,4 C 8,9 C 92 % 15 lf 1007,8 hPa 0,0 l/m 6,3 km/h (2 Bft) W-NW 287 0 min 0 min 0,000 mm 0,0 UV-I 0 W/m 5,0 C 5,0 C 12,9 km/h (3 Bft)
22.10.2021 00:32 6,2 C 4,4 C 8,9 C 92 % 15 lf 1007,8 hPa 0,0 l/m 5,4 km/h (2 Bft) W 270 0 min 0 min 0,000 mm 0,0 UV-I 0 W/m 5,0 C 5,3 C 12,9 km/h (3 Bft)
22.10.2021 00:30 6,2 C 4,4 C 8,9 C 92 % 15 lf 1007,8 hPa 0,0 l/m 3,9 km/h (1 Bft) W-SW 239 0 min 0 min 0,000 mm 0,0 UV-I 0 W/m 5,0 C 6,2 C 8,0 km/h (2 Bft)
22.10.2021 00:28 6,2 C 4,4 C 8,9 C 92 % 15 lf 1007,9 hPa 0,0 l/m 0,7 km/h (0 Bft) S 186 0 min 0 min 0,000 mm 0,0 UV-I 0 W/m 5,0 C 6,2 C 3,2 km/h (1 Bft)
22.10.2021 00:26 6,2 C 4,4 C 8,9 C 92 % 15 lf 1007,9 hPa 0,0 l/m 3,0 km/h (1 Bft) S 184 0 min 0 min 0,000 mm 0,0 UV-I 0 W/m 5,0 C 6,2 C 8,0 km/h (2 Bft)
22.10.2021 00:24 6,2 C 4,4 C 8,9 C 92 % 15 lf 1007,9 hPa 0,0 l/m 6,1 km/h (2 Bft) W-SW 241 0 min 0 min 0,000 mm 0,0 UV-I 0 W/m 5,0 C 5,1 C 14,5 km/h (3 Bft)
22.10.2021 00:22 6,2 C 4,4 C 8,9 C 92 % 15 lf 1007,9 hPa 0,0 l/m 4,7 km/h (1 Bft) SW 215 0 min 0 min 0,000 mm 0,0 UV-I 0 W/m 5,0 C 5,6 C 11,3 km/h (2 Bft)
22.10.2021 00:20 6,2 C 4,4 C 8,9 C 92 % 15 lf 1007,9 hPa 0,0 l/m 5,2 km/h (1 Bft) SW 228 0 min 0 min 0,000 mm 0,0 UV-I 0 W/m 5,0 C 5,4 C 8,0 km/h (2 Bft)
22.10.2021 00:18 6,2 C 4,4 C 8,9 C 92 % 15 lf 1007,9 hPa 0,0 l/m 5,7 km/h (2 Bft) S-SW 203 0 min 0 min 0,000 mm 0,0 UV-I 0 W/m 5,0 C 5,2 C 14,5 km/h (3 Bft)
22.10.2021 00:16 6,2 C 4,4 C 8,9 C 92 % 15 lf 1007,8 hPa 0,0 l/m 3,8 km/h (1 Bft) W-SW 244 0 min 0 min 0,000 mm 0,0 UV-I 0 W/m 5,0 C 6,2 C 11,3 km/h (2 Bft)
22.10.2021 00:14 6,2 C 4,4 C 8,9 C 92 % 15 lf 1007,9 hPa 0,0 l/m 3,3 km/h (1 Bft) S-SW 207 0 min 0 min 0,000 mm 0,0 UV-I 0 W/m 5,0 C 6,2 C 9,7 km/h (2 Bft)
22.10.2021 00:12 6,2 C 4,4 C 8,9 C 92 % 15 lf 1007,8 hPa 0,0 l/m 2,8 km/h (1 Bft) W 266 0 min 0 min 0,000 mm 0,0 UV-I 0 W/m 5,0 C 6,2 C 11,3 km/h (2 Bft)
22.10.2021 00:10 6,1 C 4,4 C 8,9 C 92 % 15 lf 1007,8 hPa 0,0 l/m 6,2 km/h (2 Bft) SW 236 0 min 0 min 0,000 mm 0,0 UV-I 0 W/m 4,9 C 4,9 C 9,7 km/h (2 Bft)
22.10.2021 00:08 6,1 C 4,4 C 8,9 C 92 % 15 lf 1007,7 hPa 0,0 l/m 9,9 km/h (2 Bft) SW 222 0 min 0 min 0,000 mm 0,0 UV-I 0 W/m 4,9 C 4,0 C 14,5 km/h (3 Bft)
22.10.2021 00:07 6,2 C 4,4 C 8,9 C 92 % 15 lf 1007,7 hPa 0,0 l/m 5,2 km/h (1 Bft) S-SW 198 0 min 0 min 0,000 mm 0,0 UV-I 0 W/m 5,0 C 5,4 C 11,3 km/h (2 Bft)
22.10.2021 00:04 6,2 C 4,4 C 8,9 C 92 % 15 lf 1007,8 hPa 0,0 l/m 3,9 km/h (1 Bft) S-SW 194 0 min 0 min 0,000 mm 0,0 UV-I 0 W/m 5,0 C 6,2 C 8,0 km/h (2 Bft)
22.10.2021 00:02 6,2 C 4,4 C 8,9 C 92 % 15 lf 1007,8 hPa 0,0 l/m 3,4 km/h (1 Bft) S 186 0 min 0 min 0,000 mm 0,0 UV-I 0 W/m 5,0 C 6,2 C 8,0 km/h (2 Bft)
22.10.2021 00:00 6,2 C 4,4 C 8,9 C 92 % 15 lf 1007,8 hPa 0,0 l/m 7,1 km/h (2 Bft) S 182 0 min 0 min 0,000 mm 0,0 UV-I 0 W/m 5,0 C 4,8 C 9,7 km/h (2 Bft)
_ Min-Zeit 00:10 02:22 06:06 06:06 06:06 05:52 - 00:28 - - - - - - - 00:56 05:28 04:02
Minimum _ 6,1 C 4,4 C 8,3 C 87 % 0 lf 1006,7 hPa - 0,7 km/h (0 Bft) - - - - - - - 4,8 C 4,0 C 3,2 km/h (1 Bft)
_ Max-Zeit 06:06 06:06 01:38 00:36 04:14 02:26 02:40 05:28 - - 06:06 02:40 06:00 06:06 06:06 03:46 04:02 05:28
Maximum _ 7,2 C 6,1 C 8,9 C 92 % 15 lf 1008,6 hPa 0,2 l/m 14,2 km/h
S-SW (3 Bft)
- - 0 min 2 min 0,025 mm 0,0 UV-I 0 W/m 5,5 C 6,9 C 32,2 km/h
SW (5 Bft)
Durchschnitt _ 6,7 C 5,1 C 8,5 C 90 % 11 lf 1007,9 hPa #0,2 l/m 7,5 km/h (2 Bft) S-SW - #0 min. #2 min. #0,025 mm 0,0 UV-I 0 W/m 5,2 C 5,3 C 15,1 km/h (3 Bft)
Betreiber Volker Afflerbach